Location: Asheville, NC
(35.6000°N, 82.5500°W)
Time: 08:48:47
(UTC-05:00)

N. Korean satellite - Pass Details

Date: 10 February 2018
Orbit: 459 x 514 km, 97.2° (Epoch: 20 February)

Event Time Altitude Azimuth Distance (km) Brightness Sun altitude
Rises 06:18:45 0° 31° (NNE) 2,533 10.5 -13.4°
Reaches altitude 10° 06:21:19 10° 51° (NE) 1,661 9.9 -12.9°
Maximum altitude 06:23:48 18° 95° (E) 1,263 9.9 -12.4°
Drops below altitude 10° 06:26:18 10° 139° (SE) 1,674 10.1 -11.9°
Sets 06:28:53 0° 159° (SSE) 2,562 10.7 -11.4°
